Dixon, WY

5:31 PM MDT on September 28, 2016 (GMT -0600)
Dixon AP, Dixon, WY

Weather History for KDWX - April, 2014

Change the Weather History Date:

Saturday, April 12, 2014

  Actual Average (KCAG) Record (KCAG)
Temperature  
Mean Temperature 49 °F 42 °F  
Max Temperature 66 °F 57 °F 70 °F (2003)
Min Temperature 32 °F 27 °F 3 °F (1997)
Degree Days  
Heating Degree Days 16 23  
Month to date heating degree days 295  
Since 1 July heating degree days 7633  
Cooling Degree Days 0 0  
Month to date cooling degree days 0  
Year to date cooling degree days 0  
Moisture  
Dew Point 28 °F    
Average Humidity 51    
Maximum Humidity 83    
Minimum Humidity 15    
Precipitation  
Precipitation 0.00 in 0.05 in 0.13 in (2001)
Month to date precipitation 0.55  
Year to date precipitation 3.54  
Sea Level Pressure  
Sea Level Pressure 29.84 in    
Wind  
Wind Speed 5 mph (West)    
Max Wind Speed 22 mph    
Max Gust Speed 38 mph    
Visibility 10 miles    
Events Rain    
T = Trace of Precipitation, MM = Missing Value Source: NWS Daily Summary

Daily Weather History Graph

Daily Weather History Graph

Search for Another Location

Airport or City:

Trip Planner

Search our weather history database for the weather conditions in past years. The results will help you decide how hot, cold, wet, or windy it might be!

Date:

Astronomy

Apr. 12, 2014 Rise Set
Actual Time 6:35 AM MDT 7:46 PM MDT
Civil Twilight 6:07 AM MDT 8:15 PM MDT
Nautical Twilight 5:33 AM MDT 8:49 PM MDT
Astronomical Twilight 4:57 AM MDT 9:24 PM MDT
Moon 5:27 PM MDT (4/12) 5:05 AM MDT (4/12)
Length of Visible Light 14h 08m
Length of Day
13h 11m
Waxing Gibbous, 93% of the Moon is Illuminated
Apr 12
Waxing Gibbous
Apr 15
Full
Apr 22
Last Quarter
Apr 29
New
May 6
First Quarter

Hourly Weather History & Observations

Time (MDT) Temp. Windchill Dew Point Humidity Pressure Visibility Wind Dir Wind Speed Gust Speed Precip Events Conditions
12:15 AM 38.1 °F - 26.8 °F 64% 29.95 in 10.0 mi Calm Calm - N/A   Scattered Clouds
12:35 AM 38.8 °F 35.4 °F 25.9 °F 60% 29.95 in 10.0 mi ENE 4.6 mph - N/A   Scattered Clouds
12:55 AM 37.9 °F - 25.5 °F 61% 29.95 in 10.0 mi Calm Calm - N/A   Clear
1:15 AM 36.7 °F - 25.2 °F 63% 29.95 in 10.0 mi Calm Calm - N/A   Clear
1:35 AM 35.8 °F - 25.7 °F 67% 29.94 in 10.0 mi Calm Calm - N/A   Clear
1:55 AM 35.2 °F - 26.6 °F 71% 29.94 in 10.0 mi Calm Calm - N/A   Clear
2:15 AM 34.2 °F - 26.2 °F 73% 29.94 in 10.0 mi Calm Calm - N/A   Clear
2:35 AM 35.2 °F - 26.1 °F 69% 29.94 in 10.0 mi Calm Calm - N/A   Clear
2:55 AM 34.5 °F 31.6 °F 25.5 °F 70% 29.93 in 10.0 mi ESE 3.5 mph - N/A   Clear
3:15 AM 35.2 °F 32.4 °F 25.7 °F 68% 29.93 in 10.0 mi ESE 3.5 mph - N/A   Clear
3:35 AM 32.5 °F - 26.2 °F 78% 29.93 in 10.0 mi Calm Calm - N/A   Clear
3:55 AM 34.2 °F - 25.7 °F 71% 29.92 in 10.0 mi Calm Calm - N/A   Clear
4:15 AM 34.5 °F - 25.2 °F 69% 29.92 in 10.0 mi Calm Calm - N/A   Clear
4:35 AM 34.3 °F 31.4 °F 25.2 °F 69% 29.91 in 10.0 mi East 3.5 mph - N/A   Clear
4:55 AM 34.3 °F 31.4 °F 25.3 °F 70% 29.90 in 10.0 mi ENE 3.5 mph - N/A   Clear
5:15 AM 34.5 °F - 25.3 °F 69% 29.90 in 10.0 mi Calm Calm - N/A   Clear
5:35 AM 33.4 °F - 25.3 °F 72% 29.89 in 10.0 mi Calm Calm - N/A   Clear
5:55 AM 33.3 °F 30.2 °F 25.7 °F 74% 29.89 in 10.0 mi ESE 3.5 mph - N/A   Clear
6:15 AM 34.2 °F - 25.2 °F 70% 29.89 in 10.0 mi Calm Calm - N/A   Clear
6:35 AM 36.3 °F - 24.8 °F 63% 29.89 in 10.0 mi Calm Calm - N/A   Clear
6:55 AM 34.7 °F - 25.2 °F 68% 29.89 in 10.0 mi Calm Calm - N/A   Mostly Cloudy
7:15 AM 37.0 °F - 24.8 °F 61% 29.89 in 10.0 mi Calm Calm - N/A   Mostly Cloudy
7:35 AM 35.8 °F - 27.5 °F 72% 29.89 in 10.0 mi Calm Calm - N/A   Overcast
7:55 AM 38.3 °F 31.4 °F 27.3 °F 65% 29.90 in 10.0 mi SE 10.4 mph - N/A   Overcast
8:15 AM 41.7 °F 38.0 °F 28.8 °F 60% 29.90 in 10.0 mi East 5.8 mph - N/A   Overcast
8:35 AM 43.7 °F 39.7 °F 27.3 °F 53% 29.89 in 10.0 mi East 6.9 mph - N/A   Mostly Cloudy
8:55 AM 45.7 °F 42.0 °F 28.0 °F 50% 29.87 in 10.0 mi East 6.9 mph - N/A   Mostly Cloudy
9:15 AM 48.7 °F - 28.0 °F 45% 29.87 in 10.0 mi ESE 6.9 mph - N/A   Mostly Cloudy
9:35 AM 48.4 °F - 29.7 °F 48% 29.87 in 10.0 mi SSE 4.6 mph - N/A   Mostly Cloudy
9:55 AM 54.0 °F - 25.9 °F 34% 29.87 in 10.0 mi SSE 3.5 mph - N/A   Scattered Clouds
10:15 AM 55.2 °F - 28.2 °F 36% 29.87 in 10.0 mi Calm Calm - N/A   Scattered Clouds
10:35 AM 59.4 °F - 27.5 °F 30% 29.87 in 10.0 mi Calm Calm - N/A   Clear
10:55 AM 61.7 °F - 24.8 °F 24% 29.86 in 10.0 mi WSW 9.2 mph - N/A   Clear
11:15 AM 62.8 °F - 25.3 °F 24% 29.85 in 10.0 mi West 8.1 mph - N/A   Clear
11:35 AM 64.0 °F - 25.7 °F 23% 29.84 in 10.0 mi SW 8.1 mph 18.4 mph N/A   Clear
11:55 AM 64.9 °F - 24.1 °F 21% 29.83 in 10.0 mi West 10.4 mph 16.1 mph N/A   Clear
12:15 PM 63.9 °F - 22.5 °F 21% 29.82 in 10.0 mi SW 11.5 mph 16.1 mph N/A   Clear
12:35 PM 63.0 °F - 23.0 °F 22% 29.81 in 10.0 mi WSW 9.2 mph - N/A   Clear
12:55 PM 63.5 °F - 23.4 °F 22% 29.79 in 10.0 mi WSW 9.2 mph - N/A   Clear
1:15 PM 64.4 °F - 21.4 °F 19% 29.78 in 10.0 mi WSW 9.2 mph - N/A   Clear
1:35 PM 62.6 °F - 21.0 °F 20% 29.77 in 10.0 mi West 9.2 mph - N/A   Scattered Clouds
1:55 PM 63.5 °F - 19.9 °F 19% 29.77 in 7.0 mi WSW 9.2 mph 18.4 mph N/A   Overcast
2:15 PM 65.3 °F - 17.2 °F 16% 29.77 in 10.0 mi SW 13.8 mph 27.6 mph N/A   Mostly Cloudy
2:35 PM 66.0 °F - 17.2 °F 15% 29.75 in 10.0 mi SW 17.3 mph 21.9 mph N/A   Scattered Clouds
2:55 PM 60.3 °F - 26.2 °F 27% 29.77 in 10.0 mi NW 17.3 mph 23.0 mph N/A   Mostly Cloudy
3:15 PM 58.5 °F - 27.5 °F 31% 29.77 in 10.0 mi NNW 13.8 mph 19.6 mph N/A   Overcast
3:35 PM 60.3 °F - 22.8 °F 24% 29.75 in 10.0 mi West 21.9 mph 25.3 mph N/A   Overcast
3:55 PM 61.7 °F - 22.5 °F 22% 29.75 in 10.0 mi West 13.8 mph - N/A   Overcast
4:15 PM 60.8 °F - 22.1 °F 23% 29.75 in 10.0 mi WSW 13.8 mph 25.3 mph N/A   Overcast
4:35 PM 57.6 °F - 28.0 °F 32% 29.76 in 10.0 mi NW 16.1 mph 38.0 mph N/A   Overcast
4:55 PM 57.6 °F - 29.1 °F 34% 29.75 in 10.0 mi NNW 17.3 mph 23.0 mph N/A   Mostly Cloudy
5:15 PM 57.6 °F - 29.7 °F 35% 29.76 in 10.0 mi NNW 11.5 mph - N/A   Mostly Cloudy
5:35 PM 57.7 °F - 28.2 °F 32% 29.78 in 10.0 mi NW 15.0 mph - N/A   Overcast
5:55 PM 56.8 °F - 27.7 °F 33% 29.78 in 10.0 mi WNW 13.8 mph 20.7 mph N/A   Mostly Cloudy
6:15 PM 55.6 °F - 30.0 °F 38% 29.77 in 10.0 mi NNW 5.8 mph - N/A   Overcast
6:35 PM 54.5 °F - 29.8 °F 39% 29.77 in 10.0 mi NNW 9.2 mph - N/A   Overcast
6:55 PM 54.1 °F - 28.9 °F 38% 29.77 in 10.0 mi NW 9.2 mph - N/A   Overcast
7:15 PM 53.1 °F - 30.4 °F 42% 29.77 in 10.0 mi NW 4.6 mph - N/A   Overcast
7:35 PM 51.8 °F - 31.6 °F 46% 29.79 in 10.0 mi West 3.5 mph - N/A   Overcast
7:55 PM 51.1 °F - 32.0 °F 48% 29.81 in 10.0 mi NW 12.7 mph 17.3 mph N/A   Overcast
8:15 PM 48.4 °F - 32.2 °F 54% 29.81 in 10.0 mi NW 15.0 mph 25.3 mph N/A   Overcast
8:35 PM 47.8 °F - 32.7 °F 56% 29.83 in 10.0 mi West 5.8 mph - N/A   Overcast
8:55 PM 46.9 °F - 34.0 °F 61% 29.83 in 10.0 mi North 3.5 mph - N/A   Light Drizzle
9:15 PM 47.1 °F - 34.0 °F 60% 29.84 in 10.0 mi WNW 10.4 mph 18.4 mph N/A   Light Drizzle
9:35 PM 44.6 °F 40.2 °F 36.9 °F 74% 29.83 in 7.0 mi NNE 8.1 mph 18.4 mph N/A Rain Light Rain
9:55 PM 43.5 °F 38.3 °F 38.3 °F 82% 29.83 in 10.0 mi East 9.2 mph 16.1 mph N/A Rain Rain
10:15 PM 43.2 °F 37.0 °F 38.3 °F 83% 29.81 in 10.0 mi ESE 11.5 mph - N/A   Overcast
10:35 PM 42.8 °F 35.4 °F 37.6 °F 82% 29.81 in 10.0 mi ESE 15.0 mph 19.6 mph N/A   Overcast
10:55 PM 42.8 °F 35.8 °F 37.2 °F 81% 29.81 in 10.0 mi East 13.8 mph 19.6 mph N/A   Overcast
11:15 PM 42.3 °F 34.4 °F 36.7 °F 81% 29.81 in 10.0 mi East 16.1 mph 21.9 mph N/A   Light Drizzle
11:35 PM 41.9 °F 36.3 °F 36.5 °F 81% 29.81 in 10.0 mi ESE 9.2 mph 16.1 mph N/A   Mostly Cloudy
11:55 PM 42.8 °F 35.8 °F 36.7 °F 79% 29.81 in 10.0 mi South 13.8 mph - N/A Rain Rain